Year,Month,Day,Hour,Minute,Value (Times are PST for temperature in C)
2010,05,23,00,00,7.80
2010,05,23,00,01,7.80
2010,05,23,00,02,7.80
2010,05,23,00,03,7.80
2010,05,23,00,04,7.80
2010,05,23,00,05,7.70
2010,05,23,00,06,7.70
2010,05,23,00,07,7.70
2010,05,23,00,08,7.70
2010,05,23,00,09,7.60
2010,05,23,00,10,7.60
2010,05,23,00,11,7.50
2010,05,23,00,12,7.50
2010,05,23,00,13,7.40
2010,05,23,00,14,7.40
2010,05,23,00,15,7.30
2010,05,23,00,16,7.30
2010,05,23,00,17,7.30
2010,05,23,00,18,7.20
2010,05,23,00,19,7.20
2010,05,23,00,20,7.10
2010,05,23,00,21,7.10
2010,05,23,00,22,7.00
2010,05,23,00,23,7.00
2010,05,23,00,24,7.00
2010,05,23,00,25,7.00
2010,05,23,00,26,6.90
2010,05,23,00,27,6.90
2010,05,23,00,28,6.90
2010,05,23,00,29,6.90
2010,05,23,00,30,6.90
2010,05,23,00,31,6.80
2010,05,23,00,32,6.80
2010,05,23,00,33,6.80
2010,05,23,00,34,6.80
2010,05,23,00,35,6.80
2010,05,23,00,36,6.80
2010,05,23,00,37,6.70
2010,05,23,00,38,6.70
2010,05,23,00,39,6.60
2010,05,23,00,40,6.60
2010,05,23,00,41,6.60
2010,05,23,00,42,6.60
2010,05,23,00,43,6.50
2010,05,23,00,44,6.40
2010,05,23,00,45,6.40
2010,05,23,00,46,6.40
2010,05,23,00,47,6.30
2010,05,23,00,48,6.30
2010,05,23,00,49,6.30
2010,05,23,00,50,6.20
2010,05,23,00,51,6.20
2010,05,23,00,52,6.20
2010,05,23,00,53,6.20
2010,05,23,00,54,6.10
2010,05,23,00,55,6.10
2010,05,23,00,56,6.10
2010,05,23,00,57,6.00
2010,05,23,00,58,6.00
2010,05,23,00,59,6.00
2010,05,23,01,00,5.90
2010,05,23,01,01,5.90
2010,05,23,01,02,5.90
2010,05,23,01,03,5.80
2010,05,23,01,04,5.80
2010,05,23,01,05,5.80
2010,05,23,01,06,5.80
2010,05,23,01,07,5.70
2010,05,23,01,08,5.70
2010,05,23,01,09,5.70
2010,05,23,01,10,5.70
2010,05,23,01,11,5.70
2010,05,23,01,12,5.70
2010,05,23,01,13,5.70
2010,05,23,01,14,5.70
2010,05,23,01,15,5.70
2010,05,23,01,16,5.70
2010,05,23,01,17,5.70
2010,05,23,01,18,5.60
2010,05,23,01,19,5.60
2010,05,23,01,20,5.60
2010,05,23,01,21,5.60
2010,05,23,01,22,5.70
2010,05,23,01,23,5.70
2010,05,23,01,24,5.70
2010,05,23,01,25,5.70
2010,05,23,01,26,5.70
2010,05,23,01,27,5.70
2010,05,23,01,28,5.70
2010,05,23,01,29,5.70
2010,05,23,01,30,5.70
2010,05,23,01,31,5.70
2010,05,23,01,32,5.70
2010,05,23,01,33,5.70
2010,05,23,01,34,5.70
2010,05,23,01,35,5.80
2010,05,23,01,36,5.80
2010,05,23,01,37,5.80
2010,05,23,01,38,5.80
2010,05,23,01,39,5.80
2010,05,23,01,40,5.90
2010,05,23,01,41,5.90
2010,05,23,01,42,5.90
2010,05,23,01,43,5.90
2010,05,23,01,44,5.90
2010,05,23,01,45,5.90
2010,05,23,01,46,6.00
2010,05,23,01,47,6.00
2010,05,23,01,48,6.00
2010,05,23,01,49,6.00
2010,05,23,01,50,6.00
2010,05,23,01,51,6.00
2010,05,23,01,52,6.00
2010,05,23,01,53,6.00
2010,05,23,01,54,6.00
2010,05,23,01,55,6.10
2010,05,23,01,56,6.10
2010,05,23,01,57,6.10
2010,05,23,01,58,6.10
2010,05,23,01,59,6.10
2010,05,23,02,00,6.10
2010,05,23,02,01,6.10
2010,05,23,02,02,6.10
2010,05,23,02,03,6.20
2010,05,23,02,04,6.20
2010,05,23,02,05,6.20
2010,05,23,02,06,6.20
2010,05,23,02,07,6.20
2010,05,23,02,08,6.20
2010,05,23,02,09,6.20
2010,05,23,02,10,6.20
2010,05,23,02,11,6.20
2010,05,23,02,12,6.20
2010,05,23,02,13,6.20
2010,05,23,02,14,6.20
2010,05,23,02,15,6.20
2010,05,23,02,16,6.20
2010,05,23,02,17,6.20
2010,05,23,02,18,6.20
2010,05,23,02,19,6.30
2010,05,23,02,20,6.30
2010,05,23,02,21,6.30
2010,05,23,02,22,6.30
2010,05,23,02,23,6.30
2010,05,23,02,24,6.30
2010,05,23,02,25,6.30
2010,05,23,02,26,6.30
2010,05,23,02,27,6.30
2010,05,23,02,28,6.30
2010,05,23,02,29,6.30
2010,05,23,02,30,6.30
2010,05,23,02,31,6.30
2010,05,23,02,32,6.30
2010,05,23,02,33,6.30
2010,05,23,02,34,6.30
2010,05,23,02,35,6.30
2010,05,23,02,36,6.30
2010,05,23,02,37,6.30
2010,05,23,02,38,6.30
2010,05,23,02,39,6.30
2010,05,23,02,40,6.30
2010,05,23,02,41,6.30
2010,05,23,02,42,6.30
2010,05,23,02,43,6.30
2010,05,23,02,44,6.20
2010,05,23,02,45,6.20
2010,05,23,02,46,6.20
2010,05,23,02,47,6.20
2010,05,23,02,48,6.20
2010,05,23,02,49,6.20
2010,05,23,02,50,6.20
2010,05,23,02,51,6.20
2010,05,23,02,52,6.20
2010,05,23,02,53,6.20
2010,05,23,02,54,6.20
2010,05,23,02,55,6.20
2010,05,23,02,56,6.20
2010,05,23,02,57,6.20
2010,05,23,02,58,6.20
2010,05,23,02,59,6.20
2010,05,23,03,00,6.20
2010,05,23,03,01,6.20
2010,05,23,03,02,6.20
2010,05,23,03,03,6.10
2010,05,23,03,04,6.10
2010,05,23,03,05,6.10
2010,05,23,03,06,6.10
2010,05,23,03,07,6.10
2010,05,23,03,08,6.10
2010,05,23,03,09,6.00
2010,05,23,03,10,6.00
2010,05,23,03,11,6.00
2010,05,23,03,12,6.00
2010,05,23,03,13,6.00
2010,05,23,03,14,5.90
2010,05,23,03,15,5.90
2010,05,23,03,16,5.90
2010,05,23,03,17,5.90
2010,05,23,03,18,5.90
2010,05,23,03,19,5.80
2010,05,23,03,20,5.80
2010,05,23,03,21,5.80
2010,05,23,03,22,5.80
2010,05,23,03,23,5.80
2010,05,23,03,24,5.80
2010,05,23,03,25,5.70
2010,05,23,03,26,5.70
2010,05,23,03,27,5.70
2010,05,23,03,28,5.70
2010,05,23,03,29,5.70
2010,05,23,03,30,5.70
2010,05,23,03,31,5.70
2010,05,23,03,32,5.60
2010,05,23,03,33,5.60
2010,05,23,03,34,5.60
2010,05,23,03,35,5.60
2010,05,23,03,36,5.50
2010,05,23,03,37,5.50
2010,05,23,03,38,5.50
2010,05,23,03,39,5.50
2010,05,23,03,40,5.40
2010,05,23,03,41,5.40
2010,05,23,03,42,5.40
2010,05,23,03,43,5.40
2010,05,23,03,44,5.40
2010,05,23,03,45,5.30
2010,05,23,03,46,5.30
2010,05,23,03,47,5.30
2010,05,23,03,48,5.30
2010,05,23,03,49,5.30
2010,05,23,03,50,5.30
2010,05,23,03,51,5.30
2010,05,23,03,52,5.30
2010,05,23,03,53,5.20
2010,05,23,03,54,5.20
2010,05,23,03,55,5.20
2010,05,23,03,56,5.20
2010,05,23,03,57,5.20
2010,05,23,03,58,5.20
2010,05,23,03,59,5.20
2010,05,23,04,00,5.20
2010,05,23,04,01,5.20
2010,05,23,04,02,5.20
2010,05,23,04,03,5.20
2010,05,23,04,04,5.20
2010,05,23,04,05,5.20
2010,05,23,04,06,5.20
2010,05,23,04,07,5.20
2010,05,23,04,08,5.20
2010,05,23,04,09,5.20
2010,05,23,04,10,5.20
2010,05,23,04,11,5.30
2010,05,23,04,12,5.30
2010,05,23,04,13,5.30
2010,05,23,04,14,5.30
2010,05,23,04,15,5.30
2010,05,23,04,16,5.30
2010,05,23,04,17,5.30
2010,05,23,04,18,5.30
2010,05,23,04,19,5.30
2010,05,23,04,20,5.30
2010,05,23,04,21,5.30
2010,05,23,04,22,5.30
2010,05,23,04,23,5.30
2010,05,23,04,24,5.30
2010,05,23,04,25,5.30
2010,05,23,04,26,5.30
2010,05,23,04,27,5.30
2010,05,23,04,28,5.30
2010,05,23,04,29,5.30
2010,05,23,04,30,5.30
2010,05,23,04,31,5.30
2010,05,23,04,32,5.30
2010,05,23,04,33,5.30
2010,05,23,04,34,5.30
2010,05,23,04,35,5.40
2010,05,23,04,36,5.40
2010,05,23,04,37,5.40
2010,05,23,04,38,5.40
2010,05,23,04,39,5.40
2010,05,23,04,40,5.40
2010,05,23,04,41,5.40
2010,05,23,04,42,5.40
2010,05,23,04,43,5.40
2010,05,23,04,44,5.40
2010,05,23,04,45,5.40
2010,05,23,04,46,5.40
2010,05,23,04,47,5.40
2010,05,23,04,48,5.40
2010,05,23,04,49,5.40
2010,05,23,04,50,5.40
2010,05,23,04,51,5.40
2010,05,23,04,52,5.40
2010,05,23,04,53,5.50
2010,05,23,04,54,5.50
2010,05,23,04,55,5.50
2010,05,23,04,56,5.50
2010,05,23,04,57,5.50
2010,05,23,04,58,5.50
2010,05,23,04,59,5.50
2010,05,23,05,00,5.50
2010,05,23,05,01,5.50
2010,05,23,05,02,5.50
2010,05,23,05,03,5.50
2010,05,23,05,04,5.50
2010,05,23,05,05,5.50
2010,05,23,05,06,5.40
2010,05,23,05,07,5.50
2010,05,23,05,08,5.50
2010,05,23,05,09,5.50
2010,05,23,05,10,5.50
2010,05,23,05,11,5.50
2010,05,23,05,12,5.50
2010,05,23,05,13,5.50
2010,05,23,05,14,5.50
2010,05,23,05,15,5.50
2010,05,23,05,16,5.50
2010,05,23,05,17,5.50
2010,05,23,05,18,5.50
2010,05,23,05,19,5.50
2010,05,23,05,20,5.50
2010,05,23,05,21,5.50
2010,05,23,05,22,5.50
2010,05,23,05,23,5.60
2010,05,23,05,24,5.60
2010,05,23,05,25,5.60
2010,05,23,05,26,5.60
2010,05,23,05,27,5.60
2010,05,23,05,28,5.60
2010,05,23,05,29,5.60
2010,05,23,05,30,5.60
2010,05,23,05,31,5.70
2010,05,23,05,32,5.70
2010,05,23,05,33,5.70
2010,05,23,05,34,5.70
2010,05,23,05,35,5.70
2010,05,23,05,36,5.70
2010,05,23,05,37,5.70
2010,05,23,05,38,5.70
2010,05,23,05,39,5.70
2010,05,23,05,40,5.70
2010,05,23,05,41,5.70
2010,05,23,05,42,5.70
2010,05,23,05,43,5.70
2010,05,23,05,44,5.70
2010,05,23,05,45,5.70
2010,05,23,05,46,5.80
2010,05,23,05,47,5.80
2010,05,23,05,48,5.80
2010,05,23,05,49,5.80
2010,05,23,05,50,5.80
2010,05,23,05,51,5.80
2010,05,23,05,52,5.90
2010,05,23,05,53,5.90
2010,05,23,05,54,5.90
2010,05,23,05,55,5.90
2010,05,23,05,56,5.90
2010,05,23,05,57,5.90
2010,05,23,05,58,5.90
2010,05,23,05,59,5.90
2010,05,23,06,00,6.00
2010,05,23,06,01,6.00
2010,05,23,06,02,6.00
2010,05,23,06,03,6.00
2010,05,23,06,04,6.00
2010,05,23,06,05,6.00
2010,05,23,06,06,6.00
2010,05,23,06,07,6.00
2010,05,23,06,08,6.10
2010,05,23,06,09,6.10
2010,05,23,06,10,6.10
2010,05,23,06,11,6.10
2010,05,23,06,12,6.10
2010,05,23,06,13,6.20
2010,05,23,06,14,6.20
2010,05,23,06,15,6.20
2010,05,23,06,16,6.20
2010,05,23,06,17,6.20
2010,05,23,06,18,6.20
2010,05,23,06,19,6.20
2010,05,23,06,20,6.20
2010,05,23,06,21,6.20
2010,05,23,06,22,6.20
2010,05,23,06,23,6.20
2010,05,23,06,24,6.20
2010,05,23,06,25,6.30
2010,05,23,06,26,6.30
2010,05,23,06,27,6.30
2010,05,23,06,28,6.30
2010,05,23,06,29,6.30
2010,05,23,06,30,6.40
2010,05,23,06,31,6.40
2010,05,23,06,32,6.40
2010,05,23,06,33,6.40
2010,05,23,06,34,6.40
2010,05,23,06,35,6.40
2010,05,23,06,36,6.50
2010,05,23,06,37,6.60
2010,05,23,06,38,6.60
2010,05,23,06,39,6.60
2010,05,23,06,40,6.60
2010,05,23,06,41,6.60
2010,05,23,06,42,6.60
2010,05,23,06,43,6.60
2010,05,23,06,44,6.60
2010,05,23,06,45,6.60
2010,05,23,06,46,6.60
2010,05,23,06,47,6.70
2010,05,23,06,48,6.70
2010,05,23,06,49,6.70
2010,05,23,06,50,6.70
2010,05,23,06,51,6.80
2010,05,23,06,52,6.80
2010,05,23,06,53,6.80
2010,05,23,06,54,6.80
2010,05,23,06,55,6.80
2010,05,23,06,56,6.80
2010,05,23,06,57,6.90
2010,05,23,06,58,6.90
2010,05,23,06,59,6.90
2010,05,23,07,00,7.00
2010,05,23,07,01,7.00
2010,05,23,07,02,7.00
2010,05,23,07,03,7.10
2010,05,23,07,04,7.10
2010,05,23,07,05,7.10
2010,05,23,07,06,7.10
2010,05,23,07,07,7.20
2010,05,23,07,08,7.20
2010,05,23,07,09,7.20
2010,05,23,07,10,7.20
2010,05,23,07,11,7.20
2010,05,23,07,12,7.20
2010,05,23,07,13,7.30
2010,05,23,07,14,7.30
2010,05,23,07,15,7.30
2010,05,23,07,16,7.30
2010,05,23,07,17,7.30
2010,05,23,07,18,7.30
2010,05,23,07,19,7.30
2010,05,23,07,20,7.30
2010,05,23,07,21,7.30
2010,05,23,07,22,7.40
2010,05,23,07,23,7.40
2010,05,23,07,24,7.40
2010,05,23,07,25,7.50
2010,05,23,07,26,7.50
2010,05,23,07,27,7.60
2010,05,23,07,28,7.60
2010,05,23,07,29,7.60
2010,05,23,07,30,7.70
2010,05,23,07,31,7.70
2010,05,23,07,32,7.70
2010,05,23,07,33,7.80
2010,05,23,07,34,7.80
2010,05,23,07,35,7.80
2010,05,23,07,36,7.80
2010,05,23,07,37,7.80
2010,05,23,07,38,7.90
2010,05,23,07,39,7.90
2010,05,23,07,40,7.90
2010,05,23,07,41,8.00
2010,05,23,07,42,8.00
2010,05,23,07,43,8.00
2010,05,23,07,44,8.10
2010,05,23,07,45,8.10
2010,05,23,07,46,8.20
2010,05,23,07,47,8.20
2010,05,23,07,48,8.20
2010,05,23,07,49,8.20
2010,05,23,07,50,8.20
2010,05,23,07,51,8.30
2010,05,23,07,52,8.30
2010,05,23,07,53,8.30
2010,05,23,07,54,8.40
2010,05,23,07,55,8.40
2010,05,23,07,56,8.50
2010,05,23,07,57,8.50
2010,05,23,07,58,8.50
2010,05,23,07,59,8.60
2010,05,23,08,00,8.70
2010,05,23,08,01,8.70
2010,05,23,08,02,8.70
2010,05,23,08,03,8.70
2010,05,23,08,04,8.70
2010,05,23,08,05,8.70
2010,05,23,08,06,8.70
2010,05,23,08,07,8.70
2010,05,23,08,08,8.70
2010,05,23,08,09,8.80
2010,05,23,08,10,8.90
2010,05,23,08,11,8.90
2010,05,23,08,12,9.00
2010,05,23,08,13,9.00
2010,05,23,08,14,9.00
2010,05,23,08,15,9.00
2010,05,23,08,16,9.10
2010,05,23,08,17,9.00
2010,05,23,08,18,9.00
2010,05,23,08,19,9.10
2010,05,23,08,20,9.10
2010,05,23,08,21,9.20
2010,05,23,08,22,9.20
2010,05,23,08,23,9.20
2010,05,23,08,24,9.20
2010,05,23,08,25,9.20
2010,05,23,08,26,9.20
2010,05,23,08,27,9.30
2010,05,23,08,28,9.30
2010,05,23,08,29,9.30
2010,05,23,08,30,9.30
2010,05,23,08,31,9.40
2010,05,23,08,32,9.40
2010,05,23,08,33,9.50
2010,05,23,08,34,9.50
2010,05,23,08,35,9.60
2010,05,23,08,36,9.70
2010,05,23,08,37,9.70
2010,05,23,08,38,9.80
2010,05,23,08,39,9.90
2010,05,23,08,40,9.90
2010,05,23,08,41,10.00
2010,05,23,08,42,10.10
2010,05,23,08,43,10.20
2010,05,23,08,44,10.20
2010,05,23,08,45,10.20
2010,05,23,08,46,10.30
2010,05,23,08,47,10.30
2010,05,23,08,48,10.30
2010,05,23,08,49,10.30
2010,05,23,08,50,10.30
2010,05,23,08,51,10.20
2010,05,23,08,52,10.20
2010,05,23,08,53,10.20
2010,05,23,08,54,10.10
2010,05,23,08,55,10.10
2010,05,23,08,56,10.10
2010,05,23,08,57,10.10
2010,05,23,08,58,10.10
2010,05,23,08,59,10.20
2010,05,23,09,00,10.20
2010,05,23,09,01,10.20
2010,05,23,09,02,10.20
2010,05,23,09,03,10.30
2010,05,23,09,04,10.30
2010,05,23,09,05,10.40
2010,05,23,09,06,10.50
2010,05,23,09,07,10.60
2010,05,23,09,08,10.60
2010,05,23,09,09,10.70
2010,05,23,09,10,10.80
2010,05,23,09,11,10.90
2010,05,23,09,12,11.00
2010,05,23,09,13,11.10
2010,05,23,09,14,11.10
2010,05,23,09,15,11.10
2010,05,23,09,16,11.10
2010,05,23,09,17,11.10
2010,05,23,09,18,11.10
2010,05,23,09,19,11.10
2010,05,23,09,20,11.10
2010,05,23,09,21,11.10
2010,05,23,09,22,11.10
2010,05,23,09,23,11.20
2010,05,23,09,24,11.20
2010,05,23,09,25,11.20
2010,05,23,09,26,11.20
2010,05,23,09,27,11.20
2010,05,23,09,28,11.30
2010,05,23,09,29,11.30
2010,05,23,09,30,11.30
2010,05,23,09,31,11.30
2010,05,23,09,32,11.30
2010,05,23,09,33,11.30
2010,05,23,09,34,11.30
2010,05,23,09,35,11.30
2010,05,23,09,36,11.30
2010,05,23,09,37,11.20
2010,05,23,09,38,11.20
2010,05,23,09,39,11.10
2010,05,23,09,40,11.10
2010,05,23,09,41,11.10
2010,05,23,09,42,11.10
2010,05,23,09,43,11.10
2010,05,23,09,44,11.10
2010,05,23,09,45,11.10
2010,05,23,09,46,11.10
2010,05,23,09,47,11.10
2010,05,23,09,48,11.10
2010,05,23,09,49,11.10
2010,05,23,09,50,11.10
2010,05,23,09,51,11.10
2010,05,23,09,52,11.10
2010,05,23,09,53,11.10
2010,05,23,09,54,11.10
2010,05,23,09,55,11.10
2010,05,23,09,56,11.10
2010,05,23,09,57,11.10
2010,05,23,09,58,11.10
2010,05,23,09,59,11.10
2010,05,23,10,00,11.00
2010,05,23,10,01,11.00
2010,05,23,10,02,10.90
2010,05,23,10,03,10.90
2010,05,23,10,04,10.90
2010,05,23,10,05,10.90
2010,05,23,10,06,10.90
2010,05,23,10,07,10.90
2010,05,23,10,08,10.90
2010,05,23,10,09,10.80
2010,05,23,10,10,10.80
2010,05,23,10,11,10.80
2010,05,23,10,12,10.80
2010,05,23,10,13,10.80
2010,05,23,10,14,10.80
2010,05,23,10,15,10.80
2010,05,23,10,16,10.80
2010,05,23,10,17,10.80
2010,05,23,10,18,10.70
2010,05,23,10,19,10.70
2010,05,23,10,20,10.70
2010,05,23,10,21,10.70
2010,05,23,10,22,10.80
2010,05,23,10,23,10.80
2010,05,23,10,24,10.90
2010,05,23,10,25,10.90
2010,05,23,10,26,10.90
2010,05,23,10,27,10.90
2010,05,23,10,28,10.90
2010,05,23,10,29,11.00
2010,05,23,10,30,11.10
2010,05,23,10,31,11.20
2010,05,23,10,32,11.20
2010,05,23,10,33,11.20
2010,05,23,10,34,11.20
2010,05,23,10,35,11.30
2010,05,23,10,36,11.30
2010,05,23,10,37,11.30
2010,05,23,10,38,11.20
2010,05,23,10,39,11.20
2010,05,23,10,40,11.20
2010,05,23,10,41,11.20
2010,05,23,10,42,11.20
2010,05,23,10,43,11.20
2010,05,23,10,44,11.20
2010,05,23,10,45,11.20
2010,05,23,10,46,11.20
2010,05,23,10,47,11.10
2010,05,23,10,48,11.10
2010,05,23,10,49,11.10
2010,05,23,10,50,11.10
2010,05,23,10,51,11.10
2010,05,23,10,52,11.20
2010,05,23,10,53,11.20
2010,05,23,10,54,11.20
2010,05,23,10,55,11.20
2010,05,23,10,56,11.20
2010,05,23,10,57,11.10
2010,05,23,10,58,11.10
2010,05,23,10,59,11.10
2010,05,23,11,00,11.10
2010,05,23,11,01,11.10
2010,05,23,11,02,11.10
2010,05,23,11,03,11.10
2010,05,23,11,04,11.10
2010,05,23,11,05,11.10
2010,05,23,11,06,11.10
2010,05,23,11,07,11.20
2010,05,23,11,08,11.20
2010,05,23,11,09,11.30
2010,05,23,11,10,11.30
2010,05,23,11,11,11.40
2010,05,23,11,12,11.40
2010,05,23,11,13,11.40
2010,05,23,11,14,11.40
2010,05,23,11,15,11.40
2010,05,23,11,16,11.60
2010,05,23,11,17,11.60
2010,05,23,11,18,11.60
2010,05,23,11,19,11.50
2010,05,23,11,20,11.40
2010,05,23,11,21,11.40
2010,05,23,11,22,11.40
2010,05,23,11,23,11.40
2010,05,23,11,24,11.40
2010,05,23,11,25,11.30
2010,05,23,11,26,11.30
2010,05,23,11,27,11.30
2010,05,23,11,28,11.30
2010,05,23,11,29,11.30
2010,05,23,11,30,11.30
2010,05,23,11,31,11.30
2010,05,23,11,32,11.40
2010,05,23,11,33,11.40
2010,05,23,11,34,11.40
2010,05,23,11,35,11.40
2010,05,23,11,36,11.40
2010,05,23,11,37,11.40
2010,05,23,11,38,11.40
2010,05,23,11,39,11.40
2010,05,23,11,40,11.40
2010,05,23,11,41,11.40
2010,05,23,11,42,11.60
2010,05,23,11,43,11.60
2010,05,23,11,44,11.60
2010,05,23,11,45,11.60
2010,05,23,11,46,11.60
2010,05,23,11,47,11.70
2010,05,23,11,48,11.80
2010,05,23,11,49,11.80
2010,05,23,11,50,11.80
2010,05,23,11,51,11.80
2010,05,23,11,52,11.80
2010,05,23,11,53,11.70
2010,05,23,11,54,11.70
2010,05,23,11,55,11.70
2010,05,23,11,56,11.70
2010,05,23,11,57,11.80
2010,05,23,11,58,11.80
2010,05,23,11,59,11.80
2010,05,23,12,00,12.00
2010,05,23,12,01,12.10
2010,05,23,12,02,12.20
2010,05,23,12,03,12.40
2010,05,23,12,04,12.50
2010,05,23,12,05,12.60
2010,05,23,12,06,12.70
2010,05,23,12,07,12.80
2010,05,23,12,08,12.90
2010,05,23,12,09,13.10
2010,05,23,12,10,13.20
2010,05,23,12,11,13.40
2010,05,23,12,12,13.50
2010,05,23,12,13,13.60
2010,05,23,12,14,13.60
2010,05,23,12,15,13.60
2010,05,23,12,16,13.50
2010,05,23,12,17,13.50
2010,05,23,12,18,13.60
2010,05,23,12,19,13.70
2010,05,23,12,20,13.70
2010,05,23,12,21,13.70
2010,05,23,12,22,13.70
2010,05,23,12,23,13.70
2010,05,23,12,24,13.70
2010,05,23,12,25,13.70
2010,05,23,12,26,13.60
2010,05,23,12,27,13.50
2010,05,23,12,28,13.50
2010,05,23,12,29,13.50
2010,05,23,12,30,13.50
2010,05,23,12,31,13.40
2010,05,23,12,32,13.40
2010,05,23,12,33,13.20
2010,05,23,12,34,13.10
2010,05,23,12,35,12.90
2010,05,23,12,36,12.80
2010,05,23,12,37,12.70
2010,05,23,12,38,12.60
2010,05,23,12,39,12.60
2010,05,23,12,40,12.50
2010,05,23,12,41,12.50
2010,05,23,12,42,12.40
2010,05,23,12,43,12.40
2010,05,23,12,44,12.40
2010,05,23,12,45,12.50
2010,05,23,12,46,12.60
2010,05,23,12,47,12.80
2010,05,23,12,48,12.80
2010,05,23,12,49,12.80
2010,05,23,12,50,12.80
2010,05,23,12,51,12.90
2010,05,23,12,52,13.00
2010,05,23,12,53,13.10
2010,05,23,12,54,13.30
2010,05,23,12,55,13.30
2010,05,23,12,56,13.30
2010,05,23,12,57,13.20
2010,05,23,12,58,13.20
2010,05,23,12,59,13.20
2010,05,23,13,00,13.10
2010,05,23,13,01,13.10
2010,05,23,13,02,13.00
2010,05,23,13,03,12.90
2010,05,23,13,04,12.90
2010,05,23,13,05,12.90
2010,05,23,13,06,12.90
2010,05,23,13,07,12.90
2010,05,23,13,08,12.90
2010,05,23,13,09,12.90
2010,05,23,13,10,12.90
2010,05,23,13,11,12.90
2010,05,23,13,12,12.90
2010,05,23,13,13,13.00
2010,05,23,13,14,13.10
2010,05,23,13,15,13.10
2010,05,23,13,16,13.20
2010,05,23,13,17,13.20
2010,05,23,13,18,13.20
2010,05,23,13,19,13.10
2010,05,23,13,20,13.10
2010,05,23,13,21,13.00
2010,05,23,13,22,13.00
2010,05,23,13,23,12.80
2010,05,23,13,24,12.70
2010,05,23,13,25,12.60
2010,05,23,13,26,12.50
2010,05,23,13,27,12.40
2010,05,23,13,28,12.30
2010,05,23,13,29,12.20
2010,05,23,13,30,12.20
2010,05,23,13,31,12.10
2010,05,23,13,32,12.00
2010,05,23,13,33,12.00
2010,05,23,13,34,12.00
2010,05,23,13,35,12.00
2010,05,23,13,36,11.90
2010,05,23,13,37,11.90
2010,05,23,13,38,11.90
2010,05,23,13,39,11.90
2010,05,23,13,40,11.90
2010,05,23,13,41,11.90
2010,05,23,13,42,11.80
2010,05,23,13,43,11.80
2010,05,23,13,44,11.70
2010,05,23,13,45,11.60
2010,05,23,13,46,11.60
2010,05,23,13,47,11.50
2010,05,23,13,48,11.40
2010,05,23,13,49,11.40
2010,05,23,13,50,11.30
2010,05,23,13,51,11.30
2010,05,23,13,52,11.20
2010,05,23,13,53,11.10
2010,05,23,13,54,11.00
2010,05,23,13,55,10.90
2010,05,23,13,56,10.90
2010,05,23,13,57,10.80
2010,05,23,13,58,10.70
2010,05,23,13,59,10.70
2010,05,23,14,00,10.60
2010,05,23,14,01,10.60
2010,05,23,14,02,10.60
2010,05,23,14,03,10.60
2010,05,23,14,04,10.60
2010,05,23,14,05,10.60
2010,05,23,14,06,10.60
2010,05,23,14,07,10.60
2010,05,23,14,08,10.60
2010,05,23,14,09,10.60
2010,05,23,14,10,10.50
2010,05,23,14,11,10.40
2010,05,23,14,12,10.40
2010,05,23,14,13,10.40
2010,05,23,14,14,10.40
2010,05,23,14,15,10.40
2010,05,23,14,16,10.40
2010,05,23,14,17,10.40
2010,05,23,14,18,10.40
2010,05,23,14,19,10.40
2010,05,23,14,20,10.30
2010,05,23,14,21,10.30
2010,05,23,14,22,10.30
2010,05,23,14,23,10.30
2010,05,23,14,24,10.30
2010,05,23,14,25,10.30
2010,05,23,14,26,10.30
2010,05,23,14,27,10.30
2010,05,23,14,28,10.30
2010,05,23,14,29,10.30
2010,05,23,14,30,10.30
2010,05,23,14,31,10.30
2010,05,23,14,32,10.30
2010,05,23,14,33,10.30
2010,05,23,14,34,10.40
2010,05,23,14,35,10.40
2010,05,23,14,36,10.40
2010,05,23,14,37,10.40
2010,05,23,14,38,10.60
2010,05,23,14,39,10.60
2010,05,23,14,40,10.60
2010,05,23,14,41,10.70
2010,05,23,14,42,10.80
2010,05,23,14,43,10.80
2010,05,23,14,44,10.90
2010,05,23,14,45,10.90
2010,05,23,14,46,10.90
2010,05,23,14,47,10.90
2010,05,23,14,48,11.00
2010,05,23,14,49,11.10
2010,05,23,14,50,11.10
2010,05,23,14,51,11.10
2010,05,23,14,52,11.10
2010,05,23,14,53,11.10
2010,05,23,14,54,11.20
2010,05,23,14,55,11.20
2010,05,23,14,56,11.20
2010,05,23,14,57,11.20
2010,05,23,14,58,11.20
2010,05,23,14,59,11.20
2010,05,23,15,00,11.20
2010,05,23,15,01,11.10
2010,05,23,15,02,11.10
2010,05,23,15,03,11.10
2010,05,23,15,04,11.10
2010,05,23,15,05,11.10
2010,05,23,15,06,11.10
2010,05,23,15,07,11.20
2010,05,23,15,08,11.20
2010,05,23,15,09,11.20
2010,05,23,15,10,11.30
2010,05,23,15,11,11.30
2010,05,23,15,12,11.30
2010,05,23,15,13,11.40
2010,05,23,15,14,11.40
2010,05,23,15,15,11.40
2010,05,23,15,16,11.40
2010,05,23,15,17,11.40
2010,05,23,15,18,11.50
2010,05,23,15,19,11.60
2010,05,23,15,20,11.60
2010,05,23,15,21,11.60
2010,05,23,15,22,11.60
2010,05,23,15,23,11.60
2010,05,23,15,24,11.60
2010,05,23,15,25,11.70
2010,05,23,15,26,11.70
2010,05,23,15,27,11.70
2010,05,23,15,28,11.80
2010,05,23,15,29,11.80
2010,05,23,15,30,11.90
2010,05,23,15,31,11.90
2010,05,23,15,32,12.00
2010,05,23,15,33,12.00
2010,05,23,15,34,12.10
2010,05,23,15,35,12.20
2010,05,23,15,36,12.20
2010,05,23,15,37,12.20
2010,05,23,15,38,12.30
2010,05,23,15,39,12.30
2010,05,23,15,40,12.40
2010,05,23,15,41,12.50
2010,05,23,15,42,12.60
2010,05,23,15,43,12.70
2010,05,23,15,44,12.70
2010,05,23,15,45,12.70
2010,05,23,15,46,12.70
2010,05,23,15,47,12.80
2010,05,23,15,48,12.80
2010,05,23,15,49,12.80
2010,05,23,15,50,12.80
2010,05,23,15,51,12.80
2010,05,23,15,52,12.80
2010,05,23,15,53,12.80
2010,05,23,15,54,12.80
2010,05,23,15,55,12.80
2010,05,23,15,56,12.80
2010,05,23,15,57,12.70
2010,05,23,15,58,12.70
2010,05,23,15,59,12.60
2010,05,23,16,00,12.60
2010,05,23,16,01,12.60
2010,05,23,16,02,12.50
2010,05,23,16,03,12.50
2010,05,23,16,04,12.50
2010,05,23,16,05,12.60
2010,05,23,16,06,12.60
2010,05,23,16,07,12.50
2010,05,23,16,08,12.50
2010,05,23,16,09,12.40
2010,05,23,16,10,12.40
2010,05,23,16,11,12.30
2010,05,23,16,12,12.30
2010,05,23,16,13,12.30
2010,05,23,16,14,12.30
2010,05,23,16,15,12.30
2010,05,23,16,16,12.30
2010,05,23,16,17,12.20
2010,05,23,16,18,12.20
2010,05,23,16,19,12.20
2010,05,23,16,20,12.20
2010,05,23,16,21,12.30
2010,05,23,16,22,12.30
2010,05,23,16,23,12.30
2010,05,23,16,24,12.20
2010,05,23,16,25,12.20
2010,05,23,16,26,12.20
2010,05,23,16,27,12.20
2010,05,23,16,28,12.20
2010,05,23,16,29,12.10
2010,05,23,16,30,12.10
2010,05,23,16,31,12.10
2010,05,23,16,32,12.10
2010,05,23,16,33,12.00
2010,05,23,16,34,12.00
2010,05,23,16,35,11.90
2010,05,23,16,36,11.90
2010,05,23,16,37,11.90
2010,05,23,16,38,11.80
2010,05,23,16,39,11.80
2010,05,23,16,40,11.80
2010,05,23,16,41,11.80
2010,05,23,16,42,11.70
2010,05,23,16,43,11.70
2010,05,23,16,44,11.60
2010,05,23,16,45,11.60
2010,05,23,16,46,11.60
2010,05,23,16,47,11.60
2010,05,23,16,48,11.60
2010,05,23,16,49,11.60
2010,05,23,16,50,11.70
2010,05,23,16,51,11.70
2010,05,23,16,52,11.70
2010,05,23,16,53,11.80
2010,05,23,16,54,11.80
2010,05,23,16,55,11.80
2010,05,23,16,56,11.80
2010,05,23,16,57,11.80
2010,05,23,16,58,11.80
2010,05,23,16,59,11.80
2010,05,23,17,00,11.80
2010,05,23,17,01,11.80
2010,05,23,17,02,11.80
2010,05,23,17,03,11.80
2010,05,23,17,04,11.80
2010,05,23,17,05,11.90
2010,05,23,17,06,12.00
2010,05,23,17,07,12.00
2010,05,23,17,08,12.10
2010,05,23,17,09,12.10
2010,05,23,17,10,12.10
2010,05,23,17,11,12.20
2010,05,23,17,12,12.20
2010,05,23,17,13,12.20
2010,05,23,17,14,12.20
2010,05,23,17,15,12.20
2010,05,23,17,16,12.20
2010,05,23,17,17,12.10
2010,05,23,17,18,12.10
2010,05,23,17,19,12.10
2010,05,23,17,20,12.10
2010,05,23,17,21,12.00
2010,05,23,17,22,12.00
2010,05,23,17,23,11.90
2010,05,23,17,24,11.90
2010,05,23,17,25,11.90
2010,05,23,17,26,11.80
2010,05,23,17,27,11.80
2010,05,23,17,28,11.80
2010,05,23,17,29,11.80
2010,05,23,17,30,11.80
2010,05,23,17,31,11.70
2010,05,23,17,32,11.70
2010,05,23,17,33,11.70
2010,05,23,17,34,11.60
2010,05,23,17,35,11.60
2010,05,23,17,36,11.60
2010,05,23,17,37,11.60
2010,05,23,17,38,11.60
2010,05,23,17,39,11.60
2010,05,23,17,40,11.50
2010,05,23,17,41,11.40
2010,05,23,17,42,11.60